Погода в Тотьме

Погода в Тотьме : погода сейчас, прогноз погоды и архив. Всё, что Вы хотите узнать о погоде в Тотьме!

Хотите узнать прогноз погоды в Тотьме? Тогда Вам сюда: Погода в Тотьме

Поиск расширенной информации на нашем сайте:

Другие новости

Новости СМИ2

Главная страница сайта

Новости сайта

02.10.2013

Напоминаем, что на нашем новом сайте вы можете получить высокодетализированные прогнозы погоды по пунктам России, СНГ и мира (включающие важные для авиации метеовеличины, такие как направление и скорость ветра, видимость, явления погоды, количество и форма облачности, нижняя и верхняя граница облачности), а также ознакомиться с разнообразными материалами по авиационной метеорологии и подборкой полезных ссылок на эту тему.

Сайт Метеоцентр.Азия посвящён разработке технологий оптимизации авиаметеорологического обслуживания, включая проектирование и перспективное создание нескольких автоматизированных авиаметеорологических систем:
- система выпуска высокодетальных прогностических карт явлений погоды для нижнего воздушного пространства по России и ближнему зарубежью;
- система верификации прогнозов TAF (выпускаемых синоптиками официальных АМСГ РФ и ближнего зарубежья) и AUTOTAF (выпускаемых сайтом Метеоцентр.Азия) - выявление ошибок, онлайн-сопоставление с фактической погодой METAR, автоматическое внесение коррективов в прогнозы при резком отклонении фактической погоды от прогноза, подсчёт оправдываемости прогнозов по элементам и в целом;
- система обработки, анализа и отображения авиаметеорологической информации для применения провайдерами метеорологической информации.

Рекомендуем: Купить мешок для бокса экипировочный центр спортсмен товары для бокса.

Погода в Тотьме - сегодня

Время (UTC), дата Ветер
(°,м/с) 
Видим.   Явления Облачность Т
(°С)
Тd
(°С)
f(%) Тe
(°С)
Pmin
(гПа)
dP
(гПа)
Po
(мм)
O2
(г/м3)
Тmin Tmax R s Состояние
почвы
03 18.01.17 290 (З) 4000 м  слаб. снег  10/5 300 м средняя 
[Sc|As trans]
-7.7 -9.1 90 -9  1027.8  -1.1  758  315  -7.9    0.4  43  равномерный
сухой снег
100% 
06 18.01.17 270 (З) 4000 м  слаб. снег  10/5 300 м средняя 
[Sc|As op]
-9.1 -11.5 83 -13  1027.5  -0.4  757  317  -9.1         
09 18.01.17 210 (ЮЗ) 4000 м  слаб. снег  10/8 500 м средняя 
[Sc|As op]
-8.7 -10.9 84 -10  1025.8  -1.6  756  316           
12 18.01.17 230 (ЮЗ) 10 км  {снег}  10/3 300 м средняя 
[Sc|As op]
-7.9 -10.1 84 -9  1023.7  -2  755  314           
15 18.01.17 230 (ЮЗ) 4000 м  слаб. снег  10/8 300 м средняя 
[Frnb|As op]
-7.4 -9 88 -9  1022.5  -1.1  754  313    -7.4  0.7     
18 18.01.17 250 (З) 4000 м  слаб. снег  10/8 300 м средняя 
[Frnb|As op]
-6.6 -7.8 91 -9  1021.9  -0.6  753  312           
21 18.01.17 250 (З) 10 км    10/8 660 м средняя 
[Sc|Ac und]
-5.9 -7.3 90 -8  1021.1  -0.7  753  311           
00 19.01.17 220 (ЮЗ) 10 км    10/8 500 м средняя 
[Sc|Ac und]
-5.9 -7 92 -7  1019.7  -1.4  752  310           
03 19.01.17 210 (ЮЗ) 10 км    10/8 400 м средняя 
[Sc|Ac und]
-5.6 -6.6 93 -8  1016.4  -3.3  749  309  -7.5    0.0  44  равномерный
сухой снег
100% 
06 19.01.17 210 (ЮЗ) 10 км    10/3 300 м средняя 
[Sc|Ac und]
-4.9 -5.7 94 -7  1012.5  -3.7  747  307           
09 19.01.17 240 (ЮЗ) 4000 м  слаб. снег  10/8 240 м средняя 
[Frnb|Ac und]
-3.2 -4.6 90 -5  1008.7  -3.7  744  304           
12 19.01.17 250 (З) 5-10{10}  10 км  позёмок{снег}  10/8 360 м средняя 
[Frnb|Ac und]
-2.1 -3.7 89 -5  1005.9  -2.6  742  302           
15 19.01.17 250 (З) 4000 м  слаб. снег  10/8 360 м средняя 
[Frnb|Ac As]
-1.2 -2.9 88 -4  1003.9  -2  740  300    -1.2  0.7     
18 19.01.17 240 (ЮЗ) 10 км  позёмок{снег}  10/8 480 м средняя 
[Sc|Ac As]
-0.9 -2.9 86 -3  1000.7  -3.1  738  299           
21 19.01.17 240 (ЮЗ) 10 км  позёмок  10/8 420 м средняя 
[Sc|Ac As]
-0.8 -2.8 86 -3  995.7  -4.9  734  297           
00 20.01.17 260 (З) 6-11{13}  4000 м  слаб. снег  10/8 300 м средняя 
[Frnb|Ac As]
-0.1 -1.2 92 -4  991.6  -4  731  295           
03 20.01.17 290 (З) 9-14{19}  4000 м  снег  10/8 300 м средняя 
[Frnb|As trans]
-1.2 -3.9 82 -6  992.1  0.4  732  296  -1.2    0.9  44  равномерный
сухой снег
100% 
06 20.01.17 300 (СЗ) 6-12{14}  10 км  позёмок{снег}  10/8 300 м средняя 
[Frnb|As trans]
-1.6 -5.6 74 -5  995.4  3.2  734  298  -1.9         
09 20.01.17 290 (З) 7-12{17}  4000 м  слаб. снег  9/5 300 м средняя 
[Sc|Ac trans]
-3.8 -7.2 77 -8  998  2.5  736  301           
12 20.01.17 300 (СЗ) 7-14{15}  10 км  позёмок{снег}  8/6 600 м средняя 
[Sc|Ac trans]
-4.9 -8.8 74 -10  1000.3  2.2  738  303           
15 20.01.17 290 (З) 5{15}  10 км  позёмок  ясно 
-8 -12.2 72 -12  1002.6  739  308    -1.2  0.2     
18 20.01.17 290 (З) 10 км  позёмок  ясно 
-9.3 -13.1 74 -13  1002.2  -0.4  739  309           
21 20.01.17 270 (З) 10 км  позёмок  ясно 
-9 -12 79 -14  1000.4  -1.8  737  308           
00 21.01.17 270 (З) 4000 м  слаб. снег  9/6 480 м средняя 
[Sc|Ac trans]
-7.3 -9.5 84 -11  997.9  -2.3  736  305           
03 21.01.17 320 (СЗ) 4{11}  4000 м  слаб. снег  10/5 300 м средняя 
[Sc|Ac As]
-6.5 -9.7 78 -10  997.9  736  305  -9.3    0.3  45  равномерный
сухой снег
100% 
Время (UTC), дата Ветер
(°,м/с) 
Видим.   Явления Облачность Т
(°С)
Тd
(°С)
f(%) Тe
(°С)
Pmin
(гПа)
dP
(гПа)
Po
(мм)
O2
(г/м3)
Тmin Tmax R s Состояние
почвы

Для получения пояснительной информации подведите курсор к названию столбца.

ПОГОДА в Тотьме - архив

Всё, что Вы хотите узнать о погоде в Тотьме - удобно и подробно!

Выберите нужную дату (начиная с 1 января 2015* года) и нажмите кнопку "Найти".
Будут отображены архивные сводки погоды по пункту Тотьма, начиная с указанной даты.


Отображать данные в формате CSV (для использования в таблицах Excel)


Внимание! Наш архив погоды предназначен исключительно для личного некоммерческого использования в познавательных целях. Если Вам необходимы официальные справки о состоянии погоды (для производственных, юридических, коммерческих и т.п. целей), обращайтесь в органы Росгидромета.

*Примечание: данная дата относится к архиву по метеостанциям СССР (Россия, СНГ, Балтия).
Архив по метеостанциям Зарубежной Европы и Азии (кроме Китая) хранится 10 дней, по другим регионам земного шара (Китай, Африка, Америка, Австралия, Океания) - 1 день.

Тотьма - район местоположения метеостанции


Название, широта, долгота, высота метеостанции:
Тотьма 59.9°ш. 42.8°д. 134 м над ур. моря [Российская Федерация]

Дополнительная информация

В oтличие oт бoльшинства пoгoдных сайтoв мы публикуем пoдрoбную метеoинфoрмацию в детальнoм прoфессиoнальнoм фoрмате.

Характеристики температуры и влажнoсти вoздуха измеряются на высoте 2 м в тени вдали oт зданий и деревьев.
Скoрoсть ветра измеряется на высoте 10 м (на урoвне рoста челoвека скoрoсть ветра ниже в 1.5-2 раза). Если метеoстанция нахoдится в гoрoде или в лесу, тo скoрoсть ветра занижена на 2-4 м/с пo сравнению с oткрытым местoм. Скoрoсть ветра над акватoриями крупных рек и oзёр, а также на вершинах хoлмoв на 2-5 м/с выше, чем в oбычных услoвиях.
Атмoсфернoе давление в разных тoчках местнoсти мoжет значительнo oтличаться oт давления на метеoстанции, в зависимoсти oт услoвий рельефа (при пoдъёме на 10 м давление пoнижается примернo на 1 мм рт.ст.).